Location: Geyikbay?r?
(36.8756°N, 30.4583°E)
Time: 18:35:10
(UTC+00:00)

ATLAS 5 CENTAUR R/B - Pass Details

Date: 23 April 2026
Orbit: 360 x 1064 km, 63.3° (Epoch: 12 May)

Event Time Altitude Azimuth Distance (km) Brightness Sun altitude
Rises 20:18:11 0° 335° (NNW) 2,762 5.9 -35.3°
Reaches altitude 10° 20:20:18 10° 342° (NNW) 1,965 4.9 -35.5°
Enters shadow 20:21:37 19° 350° (N) 1,514 4.1 -35.6°
